{"data":{"norad_id":58999,"intl_designator":"2024-036B","name":"STARLINK-31440","alt_names":[],"object_type":"PAYLOAD","status":"ACTIVE","operator":null,"country":"US","launch_date":"2024-02-23","launch_site_code":"AFWTR","launch_vehicle":null,"mission":null,"orbit_class":"UNKNOWN","rcs_meters":null,"size_class":null,"mass_kg":null,"dimensions":null,"purposes":["comms"],"wikipedia_slug":null,"has_3d_model":false,"image_url":null,"decayed_at":null,"tle_current":{"epoch":"2026-09-20T23:15:39.868416Z","epoch_age_seconds":115416,"freshness":"FRESH","line1":"1 58999U 24036B   26263.96921144  .00010231  00000+0  31344-3 0  9994","line2":"2 58999  53.1573 249.5012 0001018  90.5282 269.5838 15.34406589144437","mean_motion":15.34406589,"eccentricity":0.0001018,"inclination_deg":53.1573,"raan_deg":249.5012,"arg_perigee_deg":90.5282,"mean_anomaly_deg":269.5838,"bstar":0.00031344,"rev_number":14443,"period_min":93.847355083275,"perigee_km":461.9872608378,"apogee_km":463.38005192344,"semimajor_km":6840.8206563806,"source":"CELESTRAK","updated_at":"2026-09-21T09:00:34.023184Z"}}}